Regional Weather Roundup
Issued by NWS

Home | Current Version | Previous Version | Graphics & Text | Print | Product List | Glossary On
Versions: 1 2 3 4 5 6 7 8 9 10 11 12 13 14 15 16 17 18 19 20 21 22 23 24 25 26 27 28 29 30 31 32 33 34 35 36 37 38 39 40 41 42 43 44 45 46 47 48 49 50
000
ASUS43 KMKX 190921
RWRWI

WISCONSIN REGIONAL WEATHER ROUNDUP
NATIONAL WEATHER SERVICE MILWAUKEE/SULLIVAN WI
400 AM CDT SAT AUG 19 2017

NOTE: "FAIR" INDICATES FEW OR NO CLOUDS BELOW 12,000 FEET WITH NO
SIGNIFICANT WEATHER AND/OR OBSTRUCTIONS TO VISIBILITY.

WIZ001-002-006>008-014>016-023>028-191000-
NORTHWEST WISCONSIN

CITY           SKY/WX    TMP DP  RH WIND       PRES   REMARKS
SUPERIOR ARPT    N/A     56  56  99 SW5       29.86S
ASHLAND        PTCLDY    59  56  89 SW7       29.86S
HAYWARD        CLOUDY    60  59  96 SW3       29.91S FOG
SIREN          FOG       56  56  97 SW3       29.91S VSB 3/4
CUMBERLAND     CLEAR     55  54  94 W3        29.92S FOG
RICE LAKE      FOG       56  55  98 CALM      29.93S VSB<1/4
CHETEK         FOG       57  57 100 CALM      29.92S VSB 1/2
LADYSMITH      CLEAR     61  60  97 W3        29.93S
EAU CLAIRE     CLEAR     59  58  96 SW3       29.91S FOG
MENOMONIE      CLEAR     59  58  98 CALM      29.92S FOG
NEW RICHMOND   FOG       56  56 100 CALM      29.92S VSB 1/4
OSCEOLA        CLEAR     55  55 100 CALM      29.94S FOG
$$

WIZ003>005-009-010-017-018-191000-
NORTH CENTRAL WISCONSIN

CITY           SKY/WX    TMP DP  RH WIND       PRES   REMARKS
MANITOWISH WTR FOG       57  57 100 CALM      29.89S VSB 1
ARBOR VITAE    CLEAR     59  58  96 CALM      29.89S FOG
WOODRUFF       CLEAR     59  58  96 CALM      29.89S FOG
RHINELANDER    FOG       59  59 100 W10       29.90S VSB 1/2
EAGLE RIVER    CLOUDY    59  59 100 W5        29.88S FOG
LAND O LAKES   CLOUDY    59  59 100 CALM      29.89S FOG
PHILLIPS       CLOUDY    60  60 100 SW3       29.90R FOG
TOMAHAWK         N/A     59  58  97 W5        29.91S FOG
MEDFORD        FOG       60  60  99 W7        29.91S VSB 1/2
MERRILL        CLOUDY    63  63 100 W8        29.91R FOG
$$

WIZ029-030-035-036-043>047-191000-
CENTRAL WISCONSIN

CITY           SKY/WX    TMP DP  RH WIND       PRES   REMARKS
WAUSAU         CLOUDY    63  62  97 NW3       29.90R
MOSINEE        CLOUDY    61  61 100 W5        29.92R FOG
MARSHFIELD     CLEAR     60  58  92 W7        29.91R FOG
STEVENS POINT  MOCLDY    59  59 100 CALM      29.91S FOG
WAUPACA        CLOUDY    65  65  97 CALM      29.90S
WAUTOMA        PTCLDY    62  61  96 CALM      29.91S
WISC RAPIDS    FOG       61  60  97 CALM      29.92S VSB 1/2
CAMP DOUGLAS   FOG       52  52 100 CALM      29.92R VSB 1/4
$$

WIZ011>013-019>022-031-037>040-048>050-191000-
NORTHEAST WISCONSIN

CITY           SKY/WX    TMP DP  RH WIND       PRES   REMARKS
ANTIGO         FOG       58  58 100 W6        29.90S VSB 1/2
SHAWANO        CLEAR     61  58  92 CALM      29.88S
OCONTO         PTCLDY    56  56  99 CALM      29.86S
STURGEON BAY   CLOUDY    61  56  83 W5        29.87R
GREEN BAY      PTCLDY    60  60 100 W8        29.88R
MANITOWOC      CLOUDY    62  59  90 W3        29.88R
APPLETON       FOG       61  61 100 W7        29.89R VSB<1/4
CLINTONVILLE   MOCLDY    59  57  94 CALM      29.89S
OSHKOSH        CLEAR     62  61  96 W5        29.90R
$$

WIZ032>034-041-042-053>061-191000-
SOUTHWEST WISCONSIN

CITY           SKY/WX    TMP DP  RH WIND       PRES   REMARKS
LA CROSSE      PTCLDY    60  59  96 S5        29.93R
SPARTA         FOG       53  53 100 CALM      29.93S VSB 3/4
VIROQUA        CLEAR     58  58 100 W3        29.95R
BOSCOBEL       FOG       60  59  96 CALM      29.94R VSB 1/4
PRAIRIE DU CHI DRZL/FOG  59  58  96 CALM      29.93R VSB<1/4
PLATTEVILLE      N/A     54  54 100 CALM      29.94S VSB 1/4
$$

WIZ056-057-062-063-064-067-068-191000-
SOUTH CENTRAL WISCONSIN

CITY           SKY/WX    TMP DP  RH WIND       PRES   REMARKS
REEDSBURG      PTCLDY    56  56 100 CALM      29.92S FOG
BARABOO/DELLS  CLEAR     57  55  95 S5        29.92S FOG
LONE ROCK      FOG       57  57 100 CALM      29.93R VSB 1/4
MINERAL POINT  FOG       55  55 100 CALM      29.94R VSB 1/4
MADISON        CLEAR     58  57  97 CALM      29.92R FOG
MIDDLETON      PTCLDY    60  60 100 CALM      29.93R
WATERTOWN      PTCLDY    59  59 100 CALM      29.91S
MONROE         PTCLDY    61  59  94 CALM      29.93R
JANESVILLE     FOG       55  55 100 NW3       29.91R VSB 1/4
$$

WIZ051-052-058>065-066-070>072-191000-
SOUTHEAST WISCONSIN

CITY           SKY/WX    TMP DP  RH WIND       PRES   REMARKS
MILWAUKEE      CLEAR     66  62  87 W5        29.89S
WAUKESHA       MOCLDY    61  59  94 W6        29.93R
MILWAUKEE/TIMM CLOUDY    61  57  88 CALM      29.91R
RACINE         CLEAR     62  61  96 W5        29.92R
KENOSHA        CLEAR     59  57  93 W3        29.91R
FOND DU LAC    CLOUDY    63  60  90 W3        29.91R
SHEBOYGAN      CLOUDY    62  62 100 W3        29.89R
WEST BEND      CLOUDY    63  63 100 W3        29.91R
JUNEAU         CLEAR     61  60  96 CALM      29.92S
$$

LSZ147-162-191000-
LAKE SUPERIOR

STATION/POSITION TIME  TEMP    WIND        PRES    WAVE
                       AIR SEA DIR/SP/G            HT/PER
                 (UTC) (F)     (DEG/KT/KT) (MB)    (FT/S)
W MID LAKE BUOY  0850   61 60  250/ 14/ 16 1009.1S   1/ 3
DEVILS ISLAND    0900   62     240/ 15/ 17 1010.0R
SAXON HARBOR     0830   64     200/  9/ 13 1010.5R
$$

LMZ867-665-643>646-191000-
LAKE MICHIGAN

STATION/POSITION TIME  TEMP    WIND        PRES    WAVE
                       AIR SEA DIR/SP/G            HT/PER
                 (UTC) (F)     (DEG/KT/KT) (MB)    (FT/S)
S GREEN BAY BUOY 0900   65 70  270/ 12/ 12 1011.2
N MID LAKE BUOY  0750   66 66  300/ 12/ 14 1010.7F   1/ 3
NORTHPORT PIER   0840   64     260/  3/  5 1010.5S
KEWAUNEE LAKESHO 0854   61     290/  4/  5 1010.6R
SHEBOYGAN LAKESH 0900   65     270/  7/  7 1011.7R
PORT WASHINGTON  0840   65     290/  3/  4 1012.9R
ATWATER BUOY     0809   67 70  270/  8/  8 1012.2S
MILWAUKEE LAKESH 0900   66     300/  6/  8   N/A
S MID LAKE BUOY  0850   69 71  350/ 12/ 14 1011.7R   2/ 4
KENOSHA   LAKESH 0900   64     290/  9/ 10 1012.2
$$

TC  - TEMPERATURE IN CELSIUS
VSB - VISIBILITY IN STATUTE MILES
WCI - WIND CHILL INDEX
HX  - HEAT INDEX





USA.gov is the U.S. government's official web portal to all federal, state and local government web resources and services.